Vorticity
5 -5 10 10 7 6 5 4 5 5 6 7 8 8 8 7 7 7 8 9 10 13 19 17 2 3 6 10 15 16 10 3 7 10 9 7 17 11 4 1 8 7 5 10 22 3 19 -24 18 6 -2 -2 15 -11
37 11 12 11 7 6 5 5 5 5 5 6 6 7 7 8 7 7 7 8 9 7 24 20 2 22 -1 -1 -0 7 -3 3 9 9 15 13 12 8 10 -6 20 10 1 -7 -8 -16 -13 2 7 -1 2 5 4 9
25 15 11 12 7 7 5 5 5 5 5 5 6 7 9 8 8 7 7 8 9 9 6 12 9 10 12 6 9 9 7 9 6 7 6 4 1 7 7 13 14 -8 5 2 11 8 5 1 7 4 3 7 13 8
6 -2 8 6 16 7 7 5 5 5 5 5 6 6 6 8 10 9 9 9 8 8 5 8 13 8 10 9 9 8 6 8 8 5 6 5 4 13 8 3 4 8 9 4 7 -0 1 3 14 9 9 12 -0 18
18 20 -8 11 10 12 6 7 7 5 6 5 5 5 5 7 7 8 8 7 7 4 11 25 5 5 11 10 9 8 8 8 8 8 4 8 8 11 8 11 1 15 13 13 9 16 14 8 17 1 11 10 9 18
5 13 7 15 14 9 10 8 7 7 7 5 5 5 4 6 6 7 7 8 7 7 8 -3 2 8 21 13 4 2 6 8 9 9 9 9 9 8 13 3 8 8 16 5 2 13 13 -6 13 12 24 2 19 14
17 21 33 3 9 11 11 12 8 8 5 7 8 8 7 8 8 7 1 8 9 7 7 15 17 16 4 3 3 6 6 5 8 7 5 8 13 16 4 -9 14 11 7 11 15 14 12 11 17 10 17 17 13 11
62 9 -1 12 9 10 7 10 11 15 10 9 8 8 6 7 7 7 6 6 6 13 16 5 -4 16 11 12 15 15 12 11 7 8 6 5 14 7 -6 10 15 18 8 15 25 15 13 9 11 21 9 8 11 7
15 42 32 -3 10 11 10 5 10 8 9 14 12 10 11 12 11 8 10 10 10 5 8 12 4 12 18 3 8 7 6 5 12 8 13 20 9 -13 8 5 7 9 7 16 9 4 19 17 24 11 9 11 6 4
6 15 14 58 26 -6 3 16 2 5 7 10 8 10 10 9 12 12 13 10 9 8 4 -1 -3 1 9 -2 6 16 15 14 -1 14 32 23 2 12 17 20 18 14 19 5 8 25 11 19 4 11 12 9 1 -0
3 3 5 5 40 41 43 3 -8 9 15 9 6 8 9 10 8 11 10 12 14 23 21 15 10 7 5 5 6 3 3 2 16 25 9 13 12 15 19 24 16 19 23 19 10 6 20 8 14 13 5 -2 2 7
8 6 5 5 4 10 16 43 42 12 7 6 6 5 -5 16 18 16 19 22 -4 24 10 -1 17 27 22 22 20 22 14 10 3 24 16 22 20 22 22 23 17 19 14 10 18 12 12 12 7 0 -2 4 10 12
11 11 9 10 9 7 8 16 16 34 34 8 11 23 20 22 21 14 10 7 17 -6 -7 1 12 29 19 20 19 13 21 18 27 22 2 16 20 9 22 11 19 15 14 11 5 6 12 4 2 1 5 12 11 9
12 13 11 11 13 13 12 11 16 17 11 16 24 21 10 17 24 7 4 18 4 -3 -4 14 7 2 15 13 5 10 13 7 11 7 11 18 12 20 21 11 13 11 1 6 11 2 6 1 5 10 15 9 11 12
12 13 10 10 10 10 12 15 14 18 19 -4 10 18 16 11 2 16 10 14 14 18 23 33 29 23 21 -14 28 8 17 13 13 28 40 2 11 9 16 0 -10 15 10 8 11 6 3 10 15 9 10 11 10 12
12 9 11 10 8 10 12 12 15 17 20 8 10 11 10 18 18 15 14 15 21 20 26 24 18 21 12 12 14 13 14 12 6 1 4 8 -2 3 13 13 8 10 9 4 3 12 14 8 8 9 10 13 13 14
10 11 9 8 12 5 4 11 14 9 14 14 18 19 13 15 14 17 19 24 18 14 9 -1 17 12 16 17 6 11 4 -0 -0 8 10 8 3 7 13 10 6 2 10 14 8 8 9 8 8 10 10 13 14 8
12 9 8 13 11 12 10 13 18 7 19 20 16 13 12 8 10 8 6 8 10 6 10 5 7 7 9 10 10 3 11 10 4 4 9 9 9 8 10 9 13 9 7 8 8 7 8 10 11 13 18 12 5 5
8 14 9 11 12 9 8 12 0 6 10 9 10 8 8 10 12 15 22 22 23 29 30 23 11 7 9 3 5 7 8 9 5 5 10 10 10 11 10 6 7 7 7 7 7 8 10 13 17 19 9 4 5 -1
12 11 16 9 12 10 8 13 11 8 15 6 10 8 12 14 13 9 3 1 2 6 4 6 7 7 7 10 9 9 9 9 8 10 12 14 10 6 7 7 6 5 5 5 11 18 19 18 15 10 12 8 5 13
13 9 18 9 7 13 6 9 8 14 13 10 13 5 7 8 2 0 1 0 6 11 11 9 9 7 8 7 8 8 8 11 16 13 7 7 6 5 4 1 3 -1 14 13 10 6 0 2 3 13 7 11 12 7
10 14 20 14 -0 8 -4 5 12 10 7 6 23 16 15 10 5 7 9 10 10 9 11 9 7 10 10 10 13 15 14 10 6 7 4 4 6 6 0 3 7 8 8 1 5 3 6 5 8 3 9 18 10 10
11 9 13 25 21 4 23 15 11 7 5 14 18 14 15 11 12 12 8 15 14 11 9 9 9 8 11 11 8 6 4 7 6 5 8 9 5 4 5 5 3 6 8 17 17 17 20 14 6 13 5 5 7 8
4 6 14 16 12 13 9 4 16 15 7 14 10 12 12 27 14 12 10 9 7 11 8 10 17 18 10 4 7 6 11 9 3 5 5 5 4 1 4 11 17 16 10 11 20 12 15 25 39 35 30 8 8 20
-13 20 16 26 21 25 12 9 9 17 9 8 12 4 11 12 12 11 5 7 10 12 18 14 11 9 8 11 9 7 3 -1 3 7 5 -5 2 13 14 12 14 17 15 16 18 15 3 7 18 28 13 -8 13 14
14 21 6 24 22 10 9 11 12 5 14 12 10 13 14 11 13 7 9 16 14 16 16 15 8 10 7 4 5 4 4 6 4 2 3 17 13 14 18 16 12 12 16 18 19 13 13 19 21 10 14 17 8 12
9 -12 26 8 15 11 17 9 11 18 15 14 15 19 16 11 18 6 13 19 17 13 12 6 6 7 5 5 5 4 4 2 14 15 15 13 17 11 7 8 13 12 14 12 12 14 18 13 8 2 0 9 14 12
15 17 15 19 20 11 10 13 14 15 23 13 16 12 8 -0 7 13 8 5 3 5 5 6 5 5 4 2 7 15 15 13 17 18 13 8 8 8 16 19 19 16 15 16 15 15 16 19 18 15 15 14 12 14
22 22 19 15 12 12 11 15 8 15 7 12 9 11 5 10 10 4 4 5 5 6 6 6 7 11 15 14 11 15 19 14 9 7 8 12 23 23 20 19 20 20 18 14 12 15 16 15 18 21 18 15 18 17
21 16 13 10 8 8 13 12 16 10 8 6 5 5 6 5 5 7 7 9 10 8 9 13 13 11 14 19 12 10 9 10 11 20 23 17 16 15 15 15 14 17 21 24 26 19 14 18 17 17 15 16 16 15
9 10 13 10 8 10 7 6 5 5 5 6 8 10 11 10 9 9 9 12 14 14 14 16 17 15 12 7 11 6 16 23 17 13 13 13 11 9 10 8 7 19 25 24 28 29 25 20 20 17 16 15 15 15
8 7 7 8 10 10 12 11 9 10 11 11 10 10 10 11 12 15 19 15 13 16 12 10 13 10 14 2 16 26 14 10 11 12 11 10 8 9 13 11 24 33 34 25 28 27 20 20 22 21 18 16 15 16
10 12 15 16 15 12 9 10 11 11 10 10 11 13 12 13 17 19 19 15 6 7 13 14 13 4 14 21 14 9 9 11 11 10 9 8 10 12 12 26 34 30 27 27 25 17 19 24 21 20 20 19 19 18
Height
2967 2978 2988 2998 3007 3016 3024 3031 3037 3044 3050 3056 3061 3066 3070 3074 3078 3081 3084 3087 3091 3094 3096 3099 3101 3103 3106 3108 3112 3115 3117 3117 3119 3120 3122 3122 3122 3123 3123 3122 3123 3124 3124 3123 3124 3125 3118 3116 3116 3117 3115 3110 3109 3107
2968 2979 2988 2997 3006 3015 3023 3030 3036 3043 3049 3054 3060 3064 3069 3072 3076 3080 3083 3086 3089 3092 3096 3097 3100 3102 3104 3105 3109 3111 3113 3113 3114 3115 3117 3117 3117 3117 3118 3118 3119 3120 3120 3119 3119 3116 3113 3110 3109 3109 3108 3106 3103 3099
2967 2979 2988 2996 3005 3014 3022 3028 3035 3041 3047 3053 3058 3063 3067 3070 3074 3078 3080 3084 3087 3090 3093 3095 3097 3100 3102 3103 3106 3108 3109 3110 3110 3112 3113 3113 3114 3114 3114 3113 3115 3115 3114 3111 3111 3110 3106 3104 3103 3101 3099 3097 3095 3092
2967 2976 2987 2996 3004 3012 3020 3027 3034 3040 3046 3051 3056 3061 3065 3068 3072 3076 3079 3082 3085 3088 3090 3093 3094 3097 3098 3100 3102 3103 3105 3106 3107 3108 3108 3109 3110 3109 3107 3109 3108 3111 3109 3107 3105 3105 3102 3099 3098 3096 3093 3090 3087 3085
2968 2977 2988 2995 3003 3010 3018 3025 3031 3038 3044 3049 3054 3058 3062 3067 3070 3073 3076 3079 3082 3087 3087 3089 3091 3092 3094 3096 3097 3099 3100 3102 3102 3102 3102 3103 3104 3104 3100 3099 3099 3102 3101 3100 3096 3096 3095 3094 3091 3089 3086 3082 3080 3077
2970 2979 2987 2994 3001 3008 3016 3022 3029 3035 3041 3046 3051 3056 3060 3064 3067 3070 3074 3077 3079 3082 3084 3085 3087 3088 3090 3092 3093 3094 3096 3096 3097 3097 3097 3096 3098 3099 3093 3089 3093 3093 3091 3090 3088 3088 3087 3086 3084 3081 3078 3075 3072 3070
2970 2976 2985 2992 3000 3006 3013 3019 3025 3032 3037 3043 3048 3052 3057 3061 3064 3067 3072 3074 3075 3078 3080 3081 3081 3084 3086 3087 3087 3089 3090 3090 3091 3090 3088 3091 3092 3089 3084 3081 3086 3086 3081 3081 3082 3081 3079 3077 3075 3072 3070 3067 3065 3064
2973 2977 2982 2990 2997 3004 3010 3016 3022 3028 3033 3039 3044 3048 3052 3056 3059 3063 3066 3069 3071 3073 3075 3075 3075 3079 3081 3081 3083 3084 3084 3085 3083 3082 3080 3081 3082 3081 3074 3075 3076 3076 3074 3074 3074 3072 3071 3070 3067 3065 3063 3061 3060 3059
2977 2980 2983 2987 2994 3001 3008 3014 3019 3024 3030 3035 3040 3044 3048 3051 3055 3059 3062 3064 3066 3070 3067 3067 3070 3075 3075 3077 3078 3079 3079 3078 3076 3074 3074 3074 3070 3069 3070 3068 3068 3067 3067 3067 3067 3065 3062 3061 3060 3059 3058 3056 3055 3053
2981 2983 2985 2988 2992 2998 3005 3011 3017 3022 3027 3031 3036 3040 3043 3048 3052 3055 3057 3058 3058 3059 3058 3061 3065 3067 3072 3072 3073 3076 3072 3072 3067 3067 3067 3062 3057 3062 3062 3061 3059 3060 3060 3059 3058 3056 3054 3055 3055 3054 3053 3052 3049 3047
2984 2987 2990 2992 2992 2995 3001 3007 3013 3018 3022 3026 3030 3035 3040 3045 3048 3050 3052 3052 3051 3050 3050 3052 3056 3060 3062 3065 3067 3068 3065 3064 3061 3060 3062 3054 3048 3052 3054 3054 3053 3053 3052 3052 3051 3050 3051 3051 3050 3049 3048 3046 3042 3038
2985 2988 2991 2994 2996 2998 3000 3003 3008 3012 3018 3022 3027 3033 3037 3039 3042 3045 3042 3043 3042 3043 3041 3043 3048 3052 3054 3057 3060 3059 3060 3060 3055 3052 3052 3045 3043 3044 3046 3046 3046 3045 3045 3046 3047 3048 3047 3046 3045 3043 3041 3037 3033 3030
2985 2988 2991 2993 2996 2999 3001 3003 3005 3009 3014 3018 3022 3026 3029 3032 3033 3032 3030 3030 3033 3032 3034 3038 3043 3046 3047 3051 3051 3052 3051 3049 3048 3046 3043 3040 3040 3040 3041 3041 3042 3042 3043 3044 3044 3044 3043 3042 3039 3037 3034 3030 3026 3023
2986 2988 2991 2994 2996 2998 3000 3002 3004 3007 3011 3015 3018 3020 3022 3021 3022 3022 3023 3025 3028 3030 3033 3036 3038 3041 3041 3044 3044 3042 3041 3040 3040 3039 3037 3038 3038 3037 3038 3039 3040 3041 3041 3042 3040 3039 3038 3036 3033 3030 3026 3022 3018 3014
2986 2989 2992 2995 2996 2998 3000 3002 3003 3006 3009 3012 3014 3014 3015 3017 3018 3020 3021 3023 3025 3026 3029 3030 3032 3034 3034 3036 3033 3034 3034 3034 3035 3035 3034 3035 3036 3037 3039 3039 3039 3038 3037 3036 3034 3033 3031 3028 3025 3022 3019 3015 3011 3007
2988 2991 2993 2995 2997 2999 3001 3002 3004 3006 3007 3010 3012 3012 3013 3015 3016 3018 3019 3020 3021 3022 3024 3027 3027 3028 3028 3029 3030 3030 3031 3032 3032 3032 3032 3033 3034 3036 3037 3037 3035 3033 3032 3030 3028 3026 3024 3021 3017 3014 3011 3006 3002 2998
2989 2991 2993 2995 2997 2999 3000 3002 3004 3006 3007 3008 3009 3010 3012 3014 3015 3016 3017 3018 3019 3021 3022 3023 3024 3025 3027 3027 3028 3029 3029 3029 3029 3029 3030 3031 3032 3033 3032 3032 3031 3029 3027 3024 3022 3020 3017 3013 3009 3006 3003 2999 2994 2990
2988 2991 2993 2994 2997 2998 3000 3002 3003 3005 3006 3007 3008 3010 3011 3014 3015 3016 3017 3018 3020 3020 3022 3023 3024 3024 3025 3026 3027 3027 3027 3028 3029 3030 3031 3030 3029 3029 3028 3026 3024 3022 3020 3017 3015 3012 3009 3005 3001 2998 2994 2990 2986 2982
2987 2989 2991 2994 2996 2998 3000 3002 3004 3005 3007 3007 3009 3011 3012 3013 3014 3015 3015 3016 3018 3019 3020 3021 3022 3022 3024 3025 3025 3026 3026 3027 3026 3026 3025 3025 3024 3023 3023 3021 3019 3016 3014 3011 3008 3004 3000 2996 2992 2989 2985 2981 2978 2974
2986 2988 2990 2993 2995 2996 2999 3001 3003 3004 3005 3008 3009 3010 3011 3013 3014 3015 3016 3017 3018 3018 3019 3020 3020 3020 3022 3023 3023 3023 3023 3022 3022 3021 3020 3019 3019 3018 3017 3015 3012 3009 3006 3003 2999 2995 2991 2988 2985 2981 2977 2973 2969 2966
2986 2986 2988 2990 2993 2995 2997 2998 3000 3002 3003 3005 3006 3008 3009 3011 3012 3013 3015 3016 3017 3017 3017 3017 3017 3018 3019 3019 3019 3019 3018 3017 3017 3017 3016 3016 3014 3012 3010 3008 3004 3001 2997 2994 2990 2987 2983 2979 2976 2972 2967 2964 2960 2956
2984 2985 2987 2989 2992 2993 2996 2997 2999 3000 3002 3003 3004 3005 3006 3008 3010 3011 3012 3013 3014 3014 3014 3014 3014 3015 3015 3015 3016 3015 3014 3013 3012 3012 3011 3009 3008 3006 3003 2999 2995 2992 2989 2985 2981 2976 2972 2969 2965 2961 2957 2954 2950 2946
2982 2984 2986 2988 2990 2991 2994 2994 2996 2998 2999 3000 3001 3002 3003 3005 3007 3009 3009 3010 3010 3009 3010 3010 3011 3011 3011 3011 3010 3008 3008 3009 3008 3006 3005 3004 3001 2998 2994 2990 2986 2981 2976 2973 2969 2964 2960 2957 2953 2949 2946 2943 2939 2935
2981 2983 2984 2985 2985 2987 2989 2990 2992 2994 2996 2997 2999 2999 3001 3003 3004 3004 3005 3005 3004 3007 3007 3007 3006 3006 3006 3004 3005 3005 3005 3004 3002 2999 2997 2994 2992 2988 2984 2979 2975 2969 2964 2961 2956 2952 2948 2943 2939 2935 2934 2931 2928 2924
2981 2981 2982 2981 2981 2984 2985 2987 2989 2991 2993 2994 2996 2997 2999 3000 3000 3001 3000 2999 3001 3002 3002 3002 3002 3002 3002 3001 3001 3001 2999 2997 2995 2992 2988 2984 2980 2976 2972 2968 2963 2958 2953 2948 2944 2940 2937 2933 2929 2926 2923 2921 2919 2915
2978 2977 2977 2976 2978 2981 2982 2985 2987 2988 2990 2991 2992 2994 2995 2996 2997 2996 2994 2997 2996 2997 2997 2998 2998 2998 2998 2997 2996 2993 2991 2989 2986 2982 2978 2973 2968 2964 2959 2954 2949 2946 2942 2937 2932 2928 2925 2922 2919 2916 2913 2911 2908 2906
2974 2973 2973 2974 2975 2978 2980 2982 2984 2986 2986 2987 2988 2990 2991 2992 2991 2991 2990 2992 2992 2992 2993 2994 2993 2992 2991 2989 2987 2985 2982 2979 2975 2971 2965 2960 2957 2952 2947 2942 2936 2932 2927 2924 2921 2917 2913 2910 2908 2906 2903 2901 2898 2896
2970 2970 2971 2972 2973 2975 2977 2979 2980 2981 2982 2984 2985 2985 2986 2986 2987 2988 2988 2988 2988 2988 2988 2987 2986 2984 2982 2980 2978 2975 2972 2968 2964 2961 2956 2950 2945 2941 2936 2931 2925 2919 2915 2911 2907 2904 2902 2898 2896 2894 2892 2890 2888 2886
2967 2967 2968 2970 2972 2974 2975 2977 2978 2979 2980 2981 2982 2982 2982 2983 2984 2984 2984 2983 2983 2982 2980 2979 2977 2975 2972 2969 2966 2963 2961 2958 2954 2951 2947 2942 2937 2933 2927 2921 2915 2910 2905 2901 2898 2893 2890 2887 2885 2883 2880 2878 2877 2876
2964 2966 2967 2969 2971 2973 2975 2976 2977 2977 2978 2979 2979 2979 2979 2979 2979 2979 2978 2977 2976 2974 2972 2970 2968 2966 2963 2960 2957 2953 2950 2946 2942 2938 2932 2928 2924 2919 2913 2908 2903 2898 2892 2887 2883 2881 2879 2877 2875 2872 2871 2870 2868 2867
2966 2968 2969 2971 2972 2973 2973 2974 2975 2975 2975 2975 2975 2975 2974 2974 2973 2972 2971 2969 2968 2965 2963 2961 2959 2957 2954 2951 2948 2945 2942 2937 2933 2928 2924 2919 2914 2909 2904 2898 2892 2885 2879 2874 2870 2867 2866 2865 2864 2862 2861 2861 2860 2859
2967 2968 2969 2969 2970 2970 2970 2971 2971 2971 2971 2970 2969 2969 2968 2967 2965 2964 2963 2961 2959 2957 2956 2954 2951 2949 2946 2943 2939 2935 2932 2929 2925 2921 2917 2912 2907 2902 2895 2889 2881 2874 2868 2864 2861 2859 2858 2856 2855 2854 2853 2852 2852 2851
2966 2966 2966 2967 2967 2967 2967 2967 2966 2966 2965 2964 2962 2961 2960 2959 2958 2957 2956 2954 2953 2950 2948 2946 2943 2940 2938 2934 2932 2929 2925 2922 2918 2913 2909 2905 2900 2894 2888 2880 2872 2867 2863 2860 2857 2855 2853 2851 2849 2848 2847 2846 2845 2845